| time (UTC) | temp F | wind direction | speed knots | gust knots | rain 1hr in | rain 24hr in | rain mn in | humidity % | barometer mb |
| 20260504185504 | 82 | 101 | 4.3 | 9.6 | 0.00 | 0.00 | 0.00 | 49 | 1014.5 |
| 20260504185004 | 82 | 97 | 4.3 | 9.6 | 0.00 | 0.00 | 0.00 | 50 | 1014.5 |
| 20260504184503 | 81 | 78 | 5.2 | 12.2 | 0.00 | 0.00 | 0.00 | 50 | 1014.6 |
| 20260504184003 | 81 | 80 | 7.0 | 12.2 | 0.00 | 0.00 | 0.00 | 49 | 1014.7 |
| 20260504183504 | 81 | 82 | 6.1 | 12.2 | 0.00 | 0.00 | 0.00 | 49 | 1014.8 |
| 20260504183004 | 81 | 76 | 4.3 | 12.2 | 0.00 | 0.00 | 0.00 | 48 | 1014.8 |
| 20260504182003 | 82 | 90 | 5.2 | 11.3 | 0.00 | 0.00 | 0.00 | 47 | 1014.9 |
| 20260504181503 | 82 | 108 | 5.2 | 9.6 | 0.00 | 0.00 | 0.00 | 48 | 1014.9 |
| 20260504181004 | 82 | 117 | 4.3 | 9.6 | 0.00 | 0.00 | 0.00 | 47 | 1014.8 |
| 20260504180503 | 82 | 111 | 3.5 | 11.3 | 0.00 | 0.00 | 0.00 | 47 | 1015.0 |
| 20260504180004 | 82 | 121 | 3.5 | 11.3 | 0.00 | 0.00 | 0.00 | 47 | 1015.0 |
| 20260504175003 | 81 | 103 | 5.2 | 11.3 | 0.00 | 0.00 | 0.00 | 44 | 1015.1 |
| 20260504174504 | 81 | 99 | 5.2 | 12.2 | 0.00 | 0.00 | 0.00 | 47 | 1015.3 |
| 20260504174004 | 81 | 49 | 4.3 | 12.2 | 0.00 | 0.00 | 0.00 | 46 | 1015.2 |
| 20260504173504 | 81 | 12 | 5.2 | 9.6 | 0.00 | 0.00 | 0.00 | 47 | 1015.2 |
| 20260504173004 | 81 | 6 | 6.1 | 9.6 | 0.00 | 0.00 | 0.00 | 45 | 1015.3 |
| 20260504172503 | 81 | 358 | 5.2 | 8.7 | 0.00 | 0.00 | 0.00 | 46 | 1015.3 |
| 20260504172004 | 81 | 1 | 4.3 | 8.7 | 0.00 | 0.00 | 0.00 | 46 | 1015.4 |
| 20260504171503 | 80 | 356 | 4.3 | 8.7 | 0.00 | 0.00 | 0.00 | 45 | 1015.4 |
| 20260504170505 | 80 | 358 | 5.2 | 8.7 | 0.00 | 0.00 | 0.00 | 45 | 1015.5 |
| 20260504151004 | 77 | 27 | 7.0 | 13.9 | 0.00 | 0.00 | 0.00 | 48 | 1016.6 |
| 20260504141004 | 75 | 35 | 7.0 | 13.0 | 0.00 | 0.00 | 0.00 | 62 | 1016.4 |
| 20260504140504 | 75 | 27 | 7.8 | 13.9 | 0.00 | 0.00 | 0.00 | 62 | 1016.4 |
| 20260504110505 | 66 | 18 | 3.5 | 6.1 | 0.00 | 0.00 | 0.00 | 81 | 1015.2 |
| 20260504100504 | 66 | 17 | 4.3 | 7.8 | 0.00 | 0.00 | 0.00 | 82 | 1014.8 |
| 20260504082004 | 67 | 8 | 3.5 | 7.0 | 0.00 | 0.00 | 0.00 | 80 | 1014.8 |
| 20260504081503 | 67 | 8 | 3.5 | 5.2 | 0.00 | 0.00 | 0.00 | 79 | 1014.9 |
| 20260504081003 | 67 | 11 | 3.5 | 7.0 | 0.00 | 0.00 | 0.00 | 79 | 1014.8 |
| 20260504050503 | 68 | 41 | 2.6 | 4.3 | 0.00 | 0.00 | 0.00 | 75 | 1016.0 |
| 20260504045003 | 68 | 28 | 0.9 | 2.6 | 0.00 | 0.00 | 0.00 | 75 | 1016.2 |
| 20260504044003 | 68 | 37 | 1.7 | 4.3 | 0.00 | 0.00 | 0.00 | 75 | 1016.2 |
| 20260504043503 | 69 | 40 | 1.7 | 4.3 | 0.00 | 0.00 | 0.00 | 74 | 1016.2 |
| 20260504043005 | 69 | 23 | 1.7 | 3.5 | 0.00 | 0.00 | 0.00 | 74 | 1016.3 |
| 20260504042504 | 69 | 20 | 1.7 | 3.5 | 0.00 | 0.00 | 0.00 | 74 | 1016.4 |
| 20260504041504 | 69 | 29 | 1.7 | 4.3 | 0.00 | 0.00 | 0.00 | 74 | 1016.3 |
| 20260504041004 | 69 | 32 | 1.7 | 4.3 | 0.00 | 0.00 | 0.00 | 74 | 1016.3 |
| 20260504040005 | 69 | 36 | 2.6 | 5.2 | 0.00 | 0.01 | 0.00 | 73 | 1016.3 |
| 20260504035504 | 69 | 31 | 2.6 | 4.3 | 0.00 | 0.01 | 0.01 | 73 | 1016.4 |
| 20260504035004 | 69 | 37 | 2.6 | 7.0 | 0.00 | 0.02 | 0.01 | 73 | 1016.5 |
| 20260504034503 | 69 | 38 | 3.5 | 7.0 | 0.00 | 0.02 | 0.01 | 73 | 1016.4 |
| 20260504034004 | 69 | 33 | 4.3 | 7.0 | 0.00 | 0.02 | 0.01 | 72 | 1016.4 |
| 20260504033504 | 69 | 34 | 4.3 | 7.8 | 0.00 | 0.02 | 0.01 | 72 | 1016.5 |
| 20260504033004 | 69 | 40 | 4.3 | 8.7 | 0.00 | 0.02 | 0.01 | 72 | 1016.4 |
| 20260504032503 | 70 | 43 | 5.2 | 8.7 | 0.00 | 0.02 | 0.01 | 72 | 1016.4 |
| 20260504032003 | 70 | 48 | 5.2 | 8.7 | 0.00 | 0.02 | 0.01 | 72 | 1016.4 |
| 20260504031503 | 70 | 53 | 4.3 | 8.7 | 0.00 | 0.02 | 0.01 | 72 | 1016.4 |
| 20260504031004 | 70 | 47 | 5.2 | 8.7 | 0.00 | 0.02 | 0.01 | 72 | 1016.4 |
| 20260504030504 | 70 | 39 | 5.2 | 8.7 | 0.00 | 0.02 | 0.01 | 72 | 1016.3 |
| 20260504030004 | 70 | 35 | 5.2 | 8.7 | 0.00 | 0.02 | 0.01 | 72 | 1016.3 |
| 20260504025504 | 70 | 43 | 4.3 | 8.7 | 0.00 | 0.02 | 0.01 | 72 | 1016.3 |
| 20260504024004 | 70 | 37 | 4.3 | 8.7 | 0.00 | 0.02 | 0.01 | 72 | 1016.4 |
| 20260504023504 | 70 | 41 | 5.2 | 9.6 | 0.00 | 0.02 | 0.01 | 71 | 1016.4 |
| 20260504021004 | 70 | 39 | 2.6 | 6.1 | 0.00 | 0.02 | 0.01 | 71 | 1016.0 |
| 20260504020504 | 70 | 45 | 3.5 | 7.8 | 0.00 | 0.02 | 0.01 | 71 | 1015.9 |
| 20260504020004 | 70 | 54 | 4.3 | 8.7 | 0.00 | 0.02 | 0.01 | 71 | 1015.9 |
| 20260504015503 | 70 | 63 | 4.3 | 9.6 | 0.00 | 0.02 | 0.01 | 71 | 1015.9 |
| 20260504015004 | 70 | 65 | 5.2 | 9.6 | 0.00 | 0.02 | 0.01 | 70 | 1015.8 |
| 20260504014504 | 70 | 59 | 5.2 | 8.7 | 0.00 | 0.02 | 0.01 | 70 | 1015.7 |
| 20260504014004 | 70 | 65 | 6.1 | 11.3 | 0.00 | 0.02 | 0.01 | 70 | 1015.7 |
| 20260504013003 | 70 | 62 | 5.2 | 11.3 | 0.00 | 0.02 | 0.01 | 70 | 1015.5 |
| 20260504012503 | 71 | 58 | 4.3 | 8.7 | 0.00 | 0.02 | 0.01 | 70 | 1015.6 |
| 20260504012003 | 71 | 67 | 6.1 | 11.3 | 0.00 | 0.02 | 0.01 | 70 | 1015.6 |
| 20260504011504 | 71 | 71 | 6.1 | 11.3 | 0.00 | 0.02 | 0.01 | 69 | 1015.5 |
| 20260504011004 | 71 | 73 | 6.1 | 10.4 | 0.00 | 0.02 | 0.01 | 69 | 1015.4 |
| 20260504010504 | 71 | 69 | 5.2 | 8.7 | 0.00 | 0.02 | 0.01 | 69 | 1015.4 |
| 20260504010004 | 71 | 64 | 6.1 | 11.3 | 0.00 | 0.02 | 0.01 | 70 | 1015.4 |
| 20260504005504 | 71 | 67 | 5.2 | 11.3 | 0.00 | 0.02 | 0.01 | 69 | 1015.4 |
| 20260504005004 | 71 | 62 | 4.3 | 9.6 | 0.00 | 0.02 | 0.01 | 69 | 1015.4 |
| 20260504004503 | 72 | 58 | 5.2 | 9.6 | 0.00 | 0.02 | 0.01 | 68 | 1015.3 |
| 20260504004004 | 72 | 61 | 5.2 | 9.6 | 0.00 | 0.02 | 0.01 | 68 | 1015.3 |
| 20260504003504 | 72 | 63 | 4.3 | 9.6 | 0.00 | 0.02 | 0.01 | 67 | 1015.2 |
| 20260504003003 | 72 | 69 | 5.2 | 9.6 | 0.00 | 0.02 | 0.01 | 67 | 1015.2 |
| 20260504002505 | 72 | 77 | 5.2 | 9.6 | 0.00 | 0.02 | 0.01 | 67 | 1015.1 |
| 20260504002004 | 72 | 82 | 6.1 | 12.2 | 0.00 | 0.02 | 0.01 | 66 | 1014.9 |
| 20260504001505 | 72 | 79 | 6.1 | 12.2 | 0.00 | 0.02 | 0.01 | 66 | 1014.9 |
| 20260504001004 | 73 | 73 | 7.0 | 14.8 | 0.00 | 0.02 | 0.01 | 65 | 1014.9 |
| 20260504000504 | 73 | 68 | 6.1 | 14.8 | 0.00 | 0.02 | 0.01 | 65 | 1014.8 |
| 20260504000004 | 73 | 66 | 5.2 | 11.3 | 0.00 | 0.02 | 0.01 | 64 | 1014.8 |
| 20260503235504 | 73 | 67 | 6.1 | 11.3 | 0.00 | 0.02 | 0.01 | 64 | 1014.8 |
| 20260503235004 | 74 | 67 | 7.0 | 12.2 | 0.00 | 0.02 | 0.01 | 63 | 1014.8 |
| 20260503234504 | 74 | 65 | 6.1 | 12.2 | 0.00 | 0.02 | 0.01 | 63 | 1014.7 |
| 20260503233004 | 74 | 71 | 5.2 | 11.3 | 0.00 | 0.02 | 0.01 | 61 | 1014.6 |
| 20260503232504 | 74 | 84 | 6.1 | 11.3 | 0.00 | 0.02 | 0.01 | 61 | 1014.5 |
| 20260503232004 | 74 | 78 | 7.0 | 11.3 | 0.00 | 0.02 | 0.01 | 60 | 1014.5 |
| 20260503231003 | 75 | 67 | 6.1 | 13.0 | 0.00 | 0.02 | 0.01 | 60 | 1014.6 |
| 20260503230504 | 75 | 64 | 6.1 | 10.4 | 0.00 | 0.02 | 0.01 | 60 | 1014.5 |
| 20260503230004 | 75 | 58 | 6.1 | 12.2 | 0.00 | 0.02 | 0.01 | 60 | 1014.6 |
| 20260503225504 | 75 | 55 | 7.0 | 12.2 | 0.00 | 0.02 | 0.01 | 59 | 1014.6 |
| 20260503223504 | 76 | 42 | 6.1 | 10.4 | 0.00 | 0.02 | 0.01 | 58 | 1014.5 |
| 20260503223004 | 77 | 47 | 7.0 | 13.9 | 0.00 | 0.02 | 0.01 | 57 | 1014.6 |
| 20260503222503 | 77 | 67 | 7.0 | 13.9 | 0.00 | 0.02 | 0.01 | 57 | 1014.5 |
| 20260503222004 | 78 | 65 | 6.1 | 13.0 | 0.00 | 0.02 | 0.01 | 56 | 1014.4 |
| 20260503221504 | 78 | 45 | 7.0 | 13.9 | 0.00 | 0.02 | 0.01 | 57 | 1014.4 |
| 20260503221004 | 78 | 39 | 7.0 | 13.9 | 0.00 | 0.02 | 0.01 | 57 | 1014.4 |
| 20260503220504 | 78 | 43 | 7.8 | 13.9 | 0.00 | 0.02 | 0.01 | 56 | 1014.4 |
| 20260503220003 | 78 | 41 | 7.0 | 13.9 | 0.00 | 0.02 | 0.01 | 55 | 1014.3 |
| 20260503215504 | 79 | 24 | 6.1 | 11.3 | 0.00 | 0.02 | 0.01 | 55 | 1014.4 |
| 20260503214504 | 79 | 18 | 4.3 | 10.4 | 0.00 | 0.03 | 0.01 | 54 | 1014.3 |
| 20260503214004 | 79 | 17 | 5.2 | 9.6 | 0.00 | 0.03 | 0.01 | 55 | 1014.2 |
| 20260503213504 | 79 | 21 | 6.1 | 10.4 | 0.00 | 0.03 | 0.01 | 55 | 1014.3 |
| 20260503213003 | 79 | 25 | 6.1 | 10.4 | 0.00 | 0.03 | 0.01 | 55 | 1014.3 |
| 20260503212004 | 79 | 22 | 6.1 | 11.3 | 0.00 | 0.04 | 0.01 | 55 | 1014.2 |
| 20260503211503 | 79 | 25 | 6.1 | 10.4 | 0.00 | 0.04 | 0.01 | 54 | 1014.2 |
| 20260503211004 | 80 | 17 | 6.1 | 9.6 | 0.00 | 0.04 | 0.01 | 54 | 1014.2 |
| 20260503210003 | 80 | 2 | 5.2 | 9.6 | 0.00 | 0.04 | 0.01 | 55 | 1014.2 |
| 20260503205505 | 80 | 359 | 6.1 | 9.6 | 0.00 | 0.04 | 0.01 | 54 | 1014.2 |
| 20260503205004 | 80 | 15 | 6.1 | 10.4 | 0.00 | 0.04 | 0.01 | 54 | 1014.3 |
| 20260503204504 | 80 | 17 | 5.2 | 11.3 | 0.00 | 0.04 | 0.01 | 55 | 1014.3 |
| 20260503204004 | 80 | 1 | 5.2 | 11.3 | 0.00 | 0.04 | 0.01 | 55 | 1014.4 |
| 20260503203004 | 80 | 1 | 5.2 | 9.6 | 0.00 | 0.04 | 0.01 | 55 | 1014.6 |
| 20260503202503 | 80 | 3 | 5.2 | 8.7 | 0.00 | 0.04 | 0.01 | 55 | 1014.6 |
| 20260503202004 | 80 | 5 | 5.2 | 7.8 | 0.00 | 0.05 | 0.01 | 55 | 1014.6 |
| 20260503201003 | 80 | 6 | 5.2 | 11.3 | 0.00 | 0.08 | 0.01 | 56 | 1014.7 |
| 20260503200503 | 80 | 13 | 5.2 | 11.3 | 0.00 | 0.09 | 0.01 | 55 | 1014.7 |
| 20260503200004 | 80 | 8 | 5.2 | 10.4 | 0.00 | 0.10 | 0.01 | 55 | 1014.8 |
| 20260503195503 | 80 | 6 | 5.2 | 11.3 | 0.00 | 0.11 | 0.01 | 56 | 1014.8 |
| 20260503195004 | 80 | 8 | 6.1 | 11.3 | 0.00 | 0.12 | 0.01 | 55 | 1014.8 |
| 20260503194504 | 80 | 4 | 5.2 | 10.4 | 0.00 | 0.12 | 0.01 | 56 | 1014.9 |
| 20260503193504 | 80 | 10 | 6.1 | 11.3 | 0.00 | 0.12 | 0.01 | 56 | 1015.1 |
| 20260503193004 | 80 | 358 | 6.1 | 11.3 | 0.00 | 0.15 | 0.01 | 57 | 1015.3 |
| 20260503192003 | 79 | 2 | 6.1 | 10.4 | 0.00 | 0.20 | 0.01 | 57 | 1015.5 |
| 20260503191504 | 79 | 3 | 7.0 | 12.2 | 0.00 | 0.22 | 0.01 | 58 | 1015.5 |
| 20260503191004 | 79 | 1 | 6.1 | 12.2 | 0.00 | 0.23 | 0.01 | 59 | 1015.7 |
| 20260503190504 | 78 | 357 | 6.1 | 10.4 | 0.00 | 0.24 | 0.01 | 60 | 1015.7 |
| 20260503190004 | 78 | 9 | 6.1 | 12.2 | 0.00 | 0.24 | 0.01 | 60 | 1015.8 |